When you browse on this site, cookies collect data to enhance your experience and personalize the content and advertising you see.
Visit our Privacy Policy to learn more. By continuing to use the site, you agree to this use of cookies and data.
  • en Suisse
  • Liste des pays
  • À 7 jours
  • Température de l'eau
  • Carte satellitaire
  • Carte météo
  • Widgets météo
  • user-avatar
    Se connecter

    Météo par heure à Treschevo

    Ce jour, 27 Juin, Jeudi

    Heure Température Précipitation Vent Pression Humidité
    00:00 +17°C° 0 mm 2 m/s 741 mmHg 81%
    01:00 +16°C° 0.7 mm 2 m/s 741 mmHg 86%
    02:00 +14°C° 0.7 mm 3 m/s 740 mmHg 91%
    03:00 +14°C° 0.7 mm 3 m/s 740 mmHg 96%
    04:00 +14°C° 0.1 mm 3 m/s 739 mmHg 95%
    05:00 +14°C° 0.1 mm 3 m/s 739 mmHg 95%
    06:00 +14°C° 0.1 mm 3 m/s 738 mmHg 95%
    07:00 +16°C° 0 mm 3 m/s 738 mmHg 94%
    08:00 +16°C° 0 mm 3 m/s 737 mmHg 92%
    09:00 +17°C° 0 mm 3 m/s 737 mmHg 90%
    10:00 +17°C° 0.6 mm 4 m/s 736 mmHg 90%
    11:00 +18°C° 0.6 mm 4 m/s 735 mmHg 89%
    12:00 +18°C° 0.6 mm 4 m/s 734 mmHg 88%
    13:00 +18°C° 4.2 mm 4 m/s 734 mmHg 91%
    14:00 +18°C° 4.2 mm 4 m/s 733 mmHg 94%
    15:00 +18°C° 4.2 mm 4 m/s 732 mmHg 97%
    16:00 +17°C° 8.5 mm 5 m/s 731 mmHg 97%
    17:00 +17°C° 8.5 mm 5 m/s 730 mmHg 97%
    18:00 +17°C° 8.5 mm 5 m/s 728 mmHg 97%
    19:00 +18°C° 0.4 mm 4 m/s 728 mmHg 97%
    20:00 +18°C° 0.4 mm 2 m/s 727 mmHg 97%
    21:00 +19°C° 0.4 mm 1 m/s 726 mmHg 97%
    22:00 +18°C° 0.2 mm 1 m/s 725 mmHg 97%
    23:00 +18°C° 0.2 mm 1 m/s 725 mmHg 97%

    Demain, 28 Juin, Vendredi

    Heure Température Précipitation Vent Pression Humidité
    00:00 +17°C° 0.2 mm 2 m/s 724 mmHg 97%
    01:00 +17°C° 0 mm 3 m/s 724 mmHg 97%
    02:00 +17°C° 0 mm 4 m/s 724 mmHg 96%
    03:00 +17°C° 0 mm 5 m/s 723 mmHg 95%
    04:00 +16°C° 0.1 mm 6 m/s 723 mmHg 94%
    05:00 +15°C° 0.1 mm 6 m/s 723 mmHg 94%
    06:00 +15°C° 0.1 mm 7 m/s 723 mmHg 93%
    07:00 +14°C° 0.1 mm 7 m/s 723 mmHg 91%
    08:00 +14°C° 0.1 mm 7 m/s 723 mmHg 89%
    09:00 +14°C° 0.1 mm 6 m/s 722 mmHg 87%
    10:00 +14°C° 0.1 mm 6 m/s 722 mmHg 86%
    11:00 +14°C° 0.1 mm 6 m/s 722 mmHg 86%
    12:00 +14°C° 0.1 mm 6 m/s 722 mmHg 85%
    13:00 +15°C° 0.1 mm 6 m/s 722 mmHg 84%
    14:00 +15°C° 0.1 mm 6 m/s 723 mmHg 83%
    15:00 +15°C° 0.1 mm 5 m/s 723 mmHg 82%
    16:00 +15°C° 0.1 mm 5 m/s 723 mmHg 83%
    17:00 +14°C° 0.1 mm 5 m/s 723 mmHg 85%
    18:00 +14°C° 0.1 mm 5 m/s 723 mmHg 86%
    19:00 +13°C° 0.1 mm 5 m/s 723 mmHg 88%
    20:00 +12°C° 0.1 mm 5 m/s 724 mmHg 90%
    21:00 +10°C° 0.1 mm 5 m/s 724 mmHg 93%
    22:00 +9°C° 0.2 mm 5 m/s 724 mmHg 93%
    23:00 +9°C° 0.2 mm 6 m/s 724 mmHg 94%

    Après-demain, 29 Juin, Samedi

    Heure Température Précipitation Vent Pression Humidité
    00:00 +9°C° 0.2 mm 6 m/s 724 mmHg 94%
    01:00 +9°C° 0.5 mm 7 m/s 724 mmHg 94%
    02:00 +9°C° 0.5 mm 7 m/s 724 mmHg 94%
    03:00 +9°C° 0.5 mm 7 m/s 724 mmHg 94%
    04:00 +9°C° 0.5 mm 8 m/s 725 mmHg 94%
    05:00 +9°C° 0.5 mm 8 m/s 725 mmHg 93%
    06:00 +9°C° 0.5 mm 8 m/s 725 mmHg 93%
    07:00 +9°C° 0.7 mm 8 m/s 726 mmHg 93%
    08:00 +7°C° 0.7 mm 8 m/s 726 mmHg 93%
    09:00 +6°C° 0.7 mm 8 m/s 727 mmHg 93%
    10:00 +6°C° 0.4 mm 8 m/s 727 mmHg 93%
    11:00 +6°C° 0.4 mm 8 m/s 728 mmHg 93%
    12:00 +5°C° 0.4 mm 8 m/s 729 mmHg 92%
    13:00 +5°C° 0.5 mm 7 m/s 729 mmHg 92%
    14:00 +5°C° 0.5 mm 7 m/s 730 mmHg 92%
    15:00 +5°C° 0.5 mm 7 m/s 730 mmHg 92%
    16:00 +5°C° 0.4 mm 7 m/s 731 mmHg 92%
    17:00 +5°C° 0.4 mm 6 m/s 731 mmHg 92%
    18:00 +5°C° 0.4 mm 6 m/s 732 mmHg 92%
    19:00 +6°C° 0.5 mm 5 m/s 732 mmHg 92%
    20:00 +6°C° 0.5 mm 5 m/s 732 mmHg 92%
    21:00 +7°C° 0.5 mm 4 m/s 733 mmHg 92%
    22:00 +7°C° 0.1 mm 4 m/s 733 mmHg 91%
    23:00 +7°C° 0.1 mm 4 m/s 733 mmHg 91%

    30 Juin, Dimanche

    Heure Température Précipitation Vent Pression Humidité
    00:00 +7°C° 0.1 mm 4 m/s 733 mmHg 90%
    01:00 +7°C° 0 mm 4 m/s 733 mmHg 89%
    02:00 +7°C° 0 mm 4 m/s 733 mmHg 87%
    03:00 +7°C° 0 mm 4 m/s 734 mmHg 85%
    04:00 +7°C° 0 mm 4 m/s 734 mmHg 85%
    05:00 +7°C° 0 mm 4 m/s 734 mmHg 85%
    06:00 +7°C° 0 mm 4 m/s 735 mmHg 85%
    07:00 +10°C° 0 mm 4 m/s 735 mmHg 79%
    08:00 +12°C° 0 mm 4 m/s 735 mmHg 74%
    09:00 +13°C° 0 mm 5 m/s 736 mmHg 68%
    10:00 +14°C° 0 mm 5 m/s 736 mmHg 65%
    11:00 +15°C° 0 mm 5 m/s 736 mmHg 61%
    12:00 +17°C° 0 mm 5 m/s 736 mmHg 58%
    13:00 +17°C° 0 mm 5 m/s 736 mmHg 57%
    14:00 +19°C° 0 mm 5 m/s 736 mmHg 56%
    15:00 +19°C° 0 mm 5 m/s 736 mmHg 55%
    16:00 +19°C° 0 mm 4 m/s 737 mmHg 59%
    17:00 +19°C° 0 mm 3 m/s 737 mmHg 63%
    18:00 +19°C° 0 mm 2 m/s 737 mmHg 67%
    19:00 +17°C° 0 mm 2 m/s 737 mmHg 69%
    20:00 +16°C° 0 mm 2 m/s 737 mmHg 72%
    21:00 +14°C° 0 mm 1 m/s 737 mmHg 75%
    22:00 +13°C° 0 mm 2 m/s 737 mmHg 79%
    23:00 +13°C° 0 mm 2 m/s 738 mmHg 82%

    1 Juillet, Lundi

    Heure Température Précipitation Vent Pression Humidité
    00:00 +12°C° 0 mm 2 m/s 738 mmHg 86%
    01:00 +12°C° 0 mm 2 m/s 738 mmHg 88%
    02:00 +10°C° 0 mm 2 m/s 738 mmHg 90%
    03:00 +10°C° 0 mm 2 m/s 738 mmHg 93%
    04:00 +12°C° 0 mm 2 m/s 738 mmHg 92%
    05:00 +12°C° 0 mm 2 m/s 738 mmHg 92%
    06:00 +13°C° 0 mm 2 m/s 738 mmHg 91%
    07:00 +14°C° 0 mm 2 m/s 738 mmHg 86%
    08:00 +16°C° 0 mm 2 m/s 738 mmHg 80%
    09:00 +17°C° 0 mm 2 m/s 738 mmHg 74%
    10:00 +18°C° 0 mm 2 m/s 738 mmHg 69%
    11:00 +19°C° 0 mm 2 m/s 738 mmHg 63%
    12:00 +20°C° 0 mm 2 m/s 738 mmHg 57%
    13:00 +21°C° 0 mm 2 m/s 738 mmHg 55%
    14:00 +21°C° 0 mm 2 m/s 738 mmHg 54%
    15:00 +21°C° 0 mm 2 m/s 737 mmHg 52%
    16:00 +22°C° 0 mm 1 m/s 737 mmHg 53%
    17:00 +22°C° 0 mm 1 m/s 737 mmHg 54%
    18:00 +20°C° 0 mm 0 m/s 737 mmHg 55%
    19:00 +20°C° 0 mm 1 m/s 737 mmHg 60%
    20:00 +19°C° 0 mm 1 m/s 737 mmHg 64%
    21:00 +16°C° 0 mm 2 m/s 736 mmHg 69%
    22:00 +15°C° 0 mm 2 m/s 736 mmHg 70%
    23:00 +15°C° 0 mm 2 m/s 736 mmHg 71%

    2 Juillet, Mardi

    Heure Température Précipitation Vent Pression Humidité
    00:00 +14°C° 0 mm 2 m/s 736 mmHg 73%
    01:00 +14°C° 0 mm 2 m/s 736 mmHg 73%
    02:00 +14°C° 0 mm 2 m/s 735 mmHg 73%
    03:00 +12°C° 0 mm 3 m/s 735 mmHg 73%
    04:00 +13°C° 0 mm 3 m/s 735 mmHg 76%
    05:00 +13°C° 0 mm 3 m/s 735 mmHg 79%
    06:00 +14°C° 0 mm 3 m/s 734 mmHg 82%
    07:00 +16°C° 0 mm 3 m/s 734 mmHg 82%
    08:00 +18°C° 0 mm 3 m/s 734 mmHg 81%
    09:00 +20°C° 0 mm 3 m/s 734 mmHg 81%
    10:00 +21°C° 0.1 mm 3 m/s 733 mmHg 80%
    11:00 +22°C° 0.1 mm 3 m/s 733 mmHg 78%
    12:00 +25°C° 0.1 mm 3 m/s 733 mmHg 77%
    13:00 +24°C° 0.8 mm 3 m/s 733 mmHg 80%
    14:00 +23°C° 0.8 mm 4 m/s 732 mmHg 82%
    15:00 +22°C° 0.8 mm 4 m/s 732 mmHg 84%
    16:00 +23°C° 0.1 mm 4 m/s 732 mmHg 82%
    17:00 +23°C° 0.1 mm 4 m/s 732 mmHg 81%
    18:00 +23°C° 0.1 mm 4 m/s 732 mmHg 80%
    19:00 +21°C° 0.1 mm 4 m/s 732 mmHg 82%
    20:00 +20°C° 0.1 mm 4 m/s 732 mmHg 84%
    21:00 +18°C° 0.1 mm 4 m/s 732 mmHg 87%
    22:00 +17°C° 0 mm 4 m/s 732 mmHg 86%
    23:00 +15°C° 0 mm 4 m/s 732 mmHg 85%
    Voir plus